[[[{"header":{"parameterUnit":"kt","parameterCategory":2,"dx":1,"dy":1,"la1":30.253999710083008,"la2":30.299108505249023,"lo1":-89.0895004272461,"lo2":-89.04439544677734,"nx":28,"ny":28,"refTime":"2022-10-22T21:00:00:Z","depth":0,"parameterNumber":1,"parameterNumberName":"U-component_of_WINDS"},"data":[-5.5896,-5.6047,-5.609,-5.6282,-5.6353,-5.6492,-5.6556,-5.6643,-5.6724,-5.6896,-5.7002,-5.7063,-5.7162,-5.73,-5.7419,-5.7444,-5.749,-5.7511,-5.7536,-5.7401,-5.7386,-5.7371,-5.7336,-5.7521,-5.7521,-5.7669,-5.767,-5.7671,-5.579,-5.5862,-5.5977,-5.6117,-5.6216,-5.6221,-5.6334,-5.6416,-5.6541,-5.6642,-5.675,-5.6906,-5.7035,-5.7129,-5.7261,-5.7333,-5.7344,-5.7366,-5.736,-5.7376,-5.7234,-5.7197,-5.7355,-5.7355,-5.7355,-5.7355,-5.7355,-5.7355,-5.561,-5.5699,-5.5809,-5.5934,-5.6017,-5.6111,-5.6204,-5.6276,-5.639,-5.6532,-5.6563,-5.6706,-5.6817,-5.6999,-5.7071,-5.7184,-5.7168,-5.7206,-5.7215,-5.7223,-5.7226,-5.7004,-5.7209,-5.7209,-5.7208,-5.7208,-5.7208,0,-5.5491,-5.5521,-5.5634,-5.576,-5.5855,-5.5957,-5.6059,-5.6118,-5.6199,-5.629,-5.6426,-5.6511,-5.6682,-5.6814,-5.6949,-5.7017,-5.7033,-5.704,-5.7066,-5.7051,-5.702,-5.7037,-5.6801,-5.7034,-5.7032,-5.7031,-5.7031,-5.703,-5.531,-5.541,-5.5547,-5.5621,-5.5688,-5.5807,-5.5887,-5.5951,-5.6033,-5.6169,-5.6245,-5.638,-5.649,-5.6702,-5.6786,-5.6914,-5.6922,-5.7006,-5.6942,-5.6923,-5.6922,-5.6914,-5.6924,-5.7016,-5.7018,-5.7019,-5.7021,0,-5.5204,-5.5275,-5.5445,-5.5571,-5.5606,-5.5708,-5.5817,-5.591,-5.597,-5.6107,-5.6142,-5.6237,-5.637,-5.6442,-5.6609,-5.6643,-5.6811,-5.6818,-5.6773,-5.6777,-5.6857,-5.6848,-5.7111,-5.7148,-5.6959,-5.6961,-5.6962,0,-5.5078,-5.5207,-5.5305,-5.54,-5.5546,-5.5606,-5.5749,-5.5815,-5.5912,-5.602,-5.6049,-5.615,-5.6226,-5.6338,-5.6387,-5.6538,-5.6571,-5.6604,-5.6615,-5.6601,-5.6596,-5.6644,-5.6634,-5.664,-5.6638,-5.6637,-5.6636,0,-5.4903,-5.5108,-5.5263,-5.5321,-5.547,-5.5541,-5.5607,-5.5716,-5.5794,-5.5908,-5.5959,-5.6088,-5.6158,-5.6258,-5.6319,-5.6273,-5.6507,-5.6456,-5.6541,-5.6539,-5.6588,-5.6583,-5.6799,-5.6634,-5.6634,-5.6633,-5.6633,0,-5.4811,-5.4924,-5.5137,-5.5261,-5.5313,-5.5416,-5.5545,-5.565,-5.5762,-5.58,-5.589,-5.5918,-5.6057,-5.6001,-5.6193,-5.6115,-5.6182,-5.6228,-5.6236,-5.6251,-5.6185,-5.6295,-5.6495,-5.6518,-5.6267,-5.6264,-5.6261,0,-5.459,-5.4826,-5.4879,-5.5081,-5.5199,-5.5223,-5.5338,-5.5437,-5.5497,-5.5606,-5.5672,-5.5797,-5.5771,-5.582,-5.5906,-5.5979,-5.6081,-5.5968,-5.6124,-5.6129,-5.6091,-5.6277,-5.6287,-5.6444,-5.6223,-5.6227,-5.623,0,-5.4428,-5.4608,-5.464,-5.4709,-5.485,-5.4949,-5.5082,-5.5219,-5.5288,-5.5398,-5.551,-5.5689,-5.5676,-5.5757,-5.5793,-5.5879,-5.6014,-5.5853,-5.5857,-5.5878,-5.6211,-5.622,-5.6246,-5.602,-5.6025,-5.6028,-5.62,0,-5.427,-5.4398,-5.4489,-5.464,-5.4729,-5.486,-5.4935,-5.5018,-5.5044,-5.5103,-5.5271,-5.5373,-5.5513,-5.5563,-5.5589,-5.5763,-5.5745,-5.573,-5.5679,-5.5801,-5.5859,-5.5883,-5.5586,-5.5585,-5.5584,-5.5583,0,0,-5.404,-5.4224,-5.4279,-5.441,-5.4487,-5.451,-5.4643,-5.4722,-5.4881,-5.4934,-5.4907,-5.5173,-5.5257,-5.5452,-5.5497,-5.5554,-5.5592,-5.5546,-5.5743,-5.576,-5.5776,-5.5837,-5.5861,-5.5582,-5.5581,-5.5581,-5.5581,0,-5.3997,-5.4081,-5.4213,-5.4296,-5.4422,-5.4479,-5.451,-5.4639,-5.4684,-5.4849,-5.4865,-5.4975,-5.5187,-5.5273,-5.5344,-5.5525,-5.5531,-5.5563,-5.5634,-5.5731,-5.575,-5.5766,-5.583,-5.5852,-5.5579,-5.5579,-5.5579,0,-5.3849,-5.3944,-5.4015,-5.4194,-5.4276,-5.4399,-5.4364,-5.4495,-5.4586,-5.4605,-5.4768,-5.4835,-5.4957,-5.5133,-5.5215,-5.5192,-5.5471,-5.5398,-5.5405,-5.5415,-5.5514,-5.5536,-5.5555,-5.5294,-5.5292,-5.5291,0,0,-5.3802,-5.3921,-5.4043,-5.419,-5.4241,-5.4327,-5.44,-5.4433,-5.4541,-5.4584,-5.467,-5.4775,-5.4899,-5.4979,-5.5099,-5.5282,-5.5312,-5.5359,-5.5373,-5.5383,-5.5399,-5.55,-5.5522,-5.5286,-5.5286,-5.5286,0,0,-5.378,-5.3926,-5.3932,-5.4112,-5.4214,-5.4344,-5.4431,-5.4442,-5.4557,-5.4551,-5.4613,-5.4644,-5.481,-5.4875,-5.48,-5.5082,-5.503,-5.505,-5.5033,-5.5051,-5.5064,-5.5044,-5.4778,0,0,0,0,0,-5.3774,-5.3907,-5.3911,-5.3953,-5.4179,-5.4341,-5.4371,-5.4424,-5.4386,-5.4454,-5.4527,-5.453,-5.4847,-5.4782,-5.4822,-5.4905,-5.5222,-5.5234,-5.5244,-5.5266,-5.5284,-5.5299,0,0,0,0,0,0,-5.3791,-5.3841,-5.3908,-5.4042,-5.4093,-5.4337,-5.4284,-5.4303,-5.438,-5.4378,-5.4515,-5.4534,-5.4583,-5.4765,-5.4801,-5.4878,-5.4766,-5.5227,-5.5236,-5.5245,-5.5272,-5.5286,-5.5299,0,0,0,0,0,-5.3804,-5.3845,-5.4194,-5.4041,-5.4085,-5.4189,-5.4279,-5.4294,-5.4356,-5.4469,-5.4488,-5.4389,-5.4584,-5.4618,-5.4786,-5.486,-5.4742,-5.4755,-5.5233,-5.524,-5.5247,-5.5279,0,0,0,0,0,0,-5.3814,-5.386,-5.4204,-5.4219,-5.3994,-5.4176,-5.4206,-5.4287,-5.4443,-5.4463,-5.4345,-5.4342,-5.4586,-5.4612,-5.4638,-5.4851,-5.4722,-5.4735,-5.4744,-5.5239,-5.5245,-5.525,0,0,0,0,0,0,-5.3839,-5.3873,-5.4212,-5.415,-5.4159,-5.4164,-5.4191,-5.4342,-5.4445,-5.4311,-5.4312,-5.4342,-5.4547,-5.4609,-5.4629,-5.4863,-5.4707,-5.4719,-5.4728,-5.4734,-5.5244,-5.5248,0,0,0,0,0,0,-5.3854,-5.3884,-5.4146,-5.4153,-5.4161,-5.4341,-5.4299,-5.4528,-5.439,-5.4303,-5.438,-5.4375,-5.4544,-5.4566,-5.4623,-5.4848,-5.4859,-5.4707,-5.4716,-5.4722,-5.4726,0,0,0,0,0,0,0,-5.3867,-5.3655,-5.4111,-5.4156,-5.4163,-5.4364,-5.4368,-5.4373,-5.4389,-5.4385,-5.4381,-5.4377,-5.4634,-5.4648,-5.4662,-5.4836,0,0,-5.4706,-5.4712,0,0,0,0,0,0,0,0,-5.3644,-5.3652,-5.4111,-5.4115,-5.4118,-5.4365,-5.4368,-5.4372,-5.4389,-5.4385,-5.4382,-5.4378,-5.4637,-5.4649,-5.466,0,0,0,0,0,0,0,0,0,0,0,0,0,0,0,-5.4112,-5.4114,0,-5.4365,-5.4368,-5.4371,-5.4388,-5.4385,-5.4382,-5.438,-5.4641,-5.465,-5.4659,0,0,0,0,0,0,0,0,0,0,0,0,0,0,0,0,0,0,0,0,0,0,0,0,0,0,0,0,0,0,0,0,0,0,0,0,0,0,0,0,0,0,0,0,0,0,0,0,0,0,0,0,0,0,0,0,0,0,0,0,0,0,0,0,0,0,0,0,0]}],[{"header":{"parameterUnit":"kt","parameterCategory":2,"dx":1,"dy":1,"la1":30.253999710083008,"la2":30.299108505249023,"lo1":-89.0895004272461,"lo2":-89.04439544677734,"nx":28,"ny":28,"refTime":"2022-10-22T21:00:00:Z","depth":0,"parameterNumber":2,"parameterNumberName":"V-component_of_WINDS"},"data":[7.9518,7.9599,7.9572,7.9653,7.9643,7.9692,7.9701,7.9711,7.9711,7.9768,7.9796,7.9778,7.9768,7.9795,7.9823,7.9814,7.9826,7.9875,7.9855,7.9664,7.9636,7.9608,7.9585,7.988,7.988,8.0054,8.0055,8.0057,7.9377,7.9367,7.9404,7.9419,7.9449,7.9386,7.9393,7.9422,7.9469,7.9471,7.9498,7.9546,7.9581,7.9554,7.9582,7.9619,7.959,7.9628,7.9622,7.9621,7.9417,7.9393,7.9651,7.9651,7.9651,7.9651,7.9651,7.9651,7.9114,7.9165,7.9158,7.9196,7.9197,7.9208,7.9252,7.9227,7.9262,7.9288,7.925,7.9303,7.93,7.9321,7.9322,7.9362,7.9314,7.9347,7.9354,7.9362,7.9373,7.9117,7.9367,7.9366,7.9365,7.9365,7.9364,0,7.891,7.8883,7.8916,7.8941,7.8967,7.8984,7.8995,7.9022,7.8956,7.8988,7.9031,7.9051,7.9092,7.9129,7.915,7.9143,7.9078,7.9071,7.9092,7.9107,7.9118,7.9108,7.8772,7.9062,7.9059,7.9057,7.9056,7.9055,7.8637,7.8702,7.8682,7.8709,7.8707,7.8753,7.8773,7.871,7.8735,7.8739,7.8788,7.8825,7.885,7.8926,7.8895,7.8926,7.8893,7.9006,7.8897,7.891,7.8888,7.8882,7.8886,7.9026,7.903,7.9033,7.9035,0,7.8484,7.8439,7.8531,7.8504,7.85,7.8571,7.8548,7.8597,7.8568,7.8632,7.8643,7.8596,7.8641,7.8592,7.8633,7.8606,7.8719,7.869,7.8718,7.8707,7.8799,7.8789,7.9117,7.9154,7.8854,7.8857,7.886,0,7.8231,7.8319,7.8245,7.8301,7.8396,7.8329,7.8426,7.8409,7.8405,7.8454,7.8374,7.8422,7.8352,7.8393,7.8353,7.8438,7.8447,7.8429,7.8416,7.8433,7.8434,7.844,7.8424,7.8392,7.8391,7.8389,7.8388,0,7.7992,7.8058,7.8149,7.8156,7.8137,7.8182,7.8176,7.817,7.8192,7.8212,7.8224,7.8255,7.8269,7.8293,7.824,7.8168,7.8345,7.8234,7.8325,7.8327,7.8362,7.836,7.8667,7.8386,7.8385,7.8385,7.8384,0,7.7778,7.78,7.7941,7.7921,7.794,7.8002,7.8024,7.8066,7.8066,7.8043,7.8059,7.7997,7.8071,7.7963,7.8062,7.7981,7.8001,7.7991,7.7997,7.7995,7.7874,7.8047,7.835,7.8376,7.8,7.7997,7.7994,0,7.7514,7.7645,7.7587,7.7723,7.7775,7.7677,7.7744,7.7747,7.7723,7.7763,7.7736,7.7784,7.7694,7.7701,7.7758,7.7731,7.7837,7.7716,7.777,7.7773,7.7766,7.8046,7.81,7.829,7.7953,7.7957,7.796,0,7.7303,7.7279,7.7308,7.731,7.7304,7.7348,7.7427,7.7459,7.7488,7.7503,7.7563,7.7632,7.7564,7.7579,7.7531,7.7592,7.7763,7.7512,7.751,7.7554,7.793,7.798,7.8012,7.7718,7.7723,7.7727,7.7928,0,7.6979,7.7039,7.7116,7.713,7.7157,7.7242,7.7186,7.7222,7.7172,7.7143,7.7236,7.7226,7.7259,7.7284,7.7238,7.7394,7.7359,7.7287,7.7174,7.7361,7.7424,7.7451,7.7083,7.7079,7.7076,7.7073,0,0,7.6735,7.682,7.6754,7.6827,7.6844,7.674,7.6833,7.6839,7.6854,7.6868,7.6805,7.6899,7.6894,7.7011,7.7065,7.7081,7.7102,7.7039,7.7274,7.7296,7.7317,7.7387,7.7416,7.7068,7.7067,7.7066,7.7065,0,7.6603,7.6602,7.6696,7.6699,7.67,7.6665,7.6688,7.667,7.6656,7.6748,7.6658,7.6708,7.6787,7.679,7.6802,7.7026,7.6953,7.7041,7.7177,7.7245,7.7272,7.7295,7.7369,7.7398,7.7057,7.7058,7.7058,0,7.638,7.6367,7.6408,7.6446,7.6446,7.6504,7.6372,7.6441,7.6482,7.6363,7.6455,7.6442,7.6444,7.6565,7.6617,7.656,7.6821,7.6731,7.6749,7.6752,7.6815,7.6847,7.6876,7.6497,7.6495,7.6494,0,0,7.6274,7.633,7.6295,7.6413,7.6419,7.6369,7.6395,7.6347,7.6351,7.6353,7.6334,7.6341,7.6384,7.6415,7.6454,7.6595,7.6588,7.6664,7.6691,7.6712,7.6727,7.6796,7.6828,7.6487,7.6487,7.6487,0,0,7.6222,7.6186,7.6134,7.6264,7.6271,7.6244,7.6317,7.6254,7.6283,7.6266,7.6189,7.6187,7.6299,7.629,7.6209,7.6411,7.6302,7.632,7.6412,7.6445,7.6471,7.6468,7.607,0,0,0,0,0,7.6057,7.619,7.6144,7.6157,7.6205,7.627,7.6275,7.6214,7.6136,7.6196,7.6169,7.6091,7.6229,7.6155,7.617,7.626,7.6402,7.6418,7.6432,7.6584,7.6618,7.6648,0,0,0,0,0,0,7.6062,7.6079,7.614,7.612,7.6129,7.6265,7.6119,7.6105,7.6128,7.6112,7.6099,7.6091,7.604,7.6144,7.6158,7.6244,7.6065,7.6408,7.6421,7.6433,7.6595,7.6624,7.6648,0,0,0,0,0,7.6065,7.6079,7.6172,7.6117,7.6126,7.6076,7.6113,7.6101,7.6117,7.6076,7.6066,7.6069,7.6044,7.6051,7.6152,7.6239,7.6055,7.606,7.6417,7.6427,7.6436,7.6609,0,0,0,0,0,0,7.6068,7.6068,7.6172,7.6172,7.6062,7.6067,7.6065,7.6098,7.6079,7.607,7.6041,7.6029,7.6049,7.6053,7.606,7.6241,7.6047,7.6052,7.6056,7.6424,7.6432,7.6439,0,0,0,0,0,0,7.606,7.6069,7.6172,7.6106,7.6098,7.6059,7.6058,7.6135,7.608,7.6045,7.6033,7.6036,7.6039,7.6056,7.606,7.6183,7.604,7.6046,7.6049,7.6052,7.6431,7.6437,0,0,0,0,0,0,7.6063,7.607,7.6105,7.6099,7.6092,7.6091,7.6125,7.6178,7.6024,7.6047,7.6008,7.6001,7.6044,7.6047,7.6061,7.6183,7.6183,7.6041,7.6044,7.6047,7.6048,0,0,0,0,0,0,0,7.6065,7.6029,7.617,7.6094,7.6087,7.6175,7.6175,7.6175,7.6022,7.6016,7.601,7.6004,7.601,7.6016,7.6022,7.6182,0,0,7.604,7.6043,0,0,0,0,0,0,0,0,7.6025,7.6028,7.617,7.617,7.617,7.6175,7.6175,7.6175,7.6021,7.6016,7.6011,7.6007,7.6012,7.6016,7.6021,0,0,0,0,0,0,0,0,0,0,0,0,0,0,0,7.617,7.617,0,7.6175,7.6175,7.6175,7.6021,7.6017,7.6012,7.6009,7.6013,7.6017,7.6021,0,0,0,0,0,0,0,0,0,0,0,0,0,0,0,0,0,0,0,0,0,0,0,0,0,0,0,0,0,0,0,0,0,0,0,0,0,0,0,0,0,0,0,0,0,0,0,0,0,0,0,0,0,0,0,0,0,0,0,0,0,0,0,0,0,0,0,0,0]}]]]